Погода Лынтупы

Погода Лынтупы : погода сейчас, прогноз погоды и архив. Всё, что Вы хотите узнать о погоде Лынтупы!

Хотите узнать прогноз погоды Лынтупы? Тогда Вам сюда: Погода Лынтупы

Поиск расширенной информации на нашем сайте:

Другие новости

Новости СМИ2

Главная страница сайта

Новости сайта

03.07.2017

Напоминаем, что на нашем специализированном сайте Метеоцентр.Азия вы можете получить высокодетализированные автоматические прогнозы погоды по пунктам России, СНГ и мира в авиационном формате (включающие направление и скорость ветра, видимость, явления погоды, количество и форму облачности, нижнюю и верхнюю границу облачности).

Рекомендуем: Аренда опалубки колонн стойки для опалубки.

Погода Лынтупы - сегодня

Время (UTC), дата Ветер
(°,м/с) 
Видим.   Явления Облачность Т
(°С)
Тd
(°С)
f(%) Тe
(°С)
Pmin
(гПа)
dP
(гПа)
Po
(мм)
O2
(г/м3)
Тmin Tmax R s Состояние
почвы
15 16.09.17 200 (Ю) 15000 м    4/1 1000 м верхняя 
[Sc|Ci sp]
+16 +7.6 57 +17  1017.1  0.1  744  282           
18 16.09.17 140 (ЮВ) 15000 м    6/0 средняя 
[Ac trans]
+11 +9.4 90 +13  1018.5  0.8  745  287    +17.1       
21 16.09.17 150 (ЮВ) 15000 м    9/0 верхняя 
[Ci sp]
+11.5 +9.3 86 +13  1018.6  0.2  745  286           
00 17.09.17 тихо ()   8000 м  слаб. ливневой дождь  10/3 600 м кучево-дожд., средняя 
[Cb cap|Ac As]
+10.8 +9.7 93 +12  1017.8  -0.8  744  287      0.0     
03 17.09.17 090 (В) 8000 м  слаб. ливневой дождь  10/10 720 м кучево-дожд. 
[Cb cap]
+11 +10.4 96 +14  1016.8  -1  744  286      0.9     
06 17.09.17 050 (СВ) 9000 м  слаб. ливневой дождь  10/10 570 м кучево-дожд. 
[Cb cap]
+11 +10 94 +12  1015.9  -0.9  743  286  +8.8       
03 18.09.17 050 (СВ) 4000 м  слаб. ливневой дождь, в посл. час гроза  10/10 100 м 
[St]
+13.2 +12.8 97 +19  999  -3.7  731  278      12     
06 18.09.17 150 (ЮВ) 10 км  {гроза, ливн. осадки}  10/10 240 м 
[St]
+14.8 +13.7 93 +22  995.9  -2.8  729  276  +12.1    13     
12 18.09.17 190 (Ю) 3{10}  7000 м  слаб. ливневой дождь  10/10 270 м кучево-дожд. 
[Cb cap]
+11.8 +10.9 94 +15  994.3  -0.5  727  279         
21 18.09.17 270 (З) 6-12{14}  8000 м  слаб. ливневой дождь  10/10 400 м кучево-дожд. 
[Cb cap]
+9.1 +8.2 94 +7  1003  4.9  733  284         
00 19.09.17 270 (З) 6-12{15}  10 км  в посл. час ливневой дождь  8/8 600 м кучево-дожд. 
[Cb cap]
+8.8 +7.3 90 +7  1007.4  4.3  737  286         
03 19.09.17 230 (ЮЗ) 4{12}  10 км    9/9 500 м 
[Sc]
+8.8 +7.7 93 +8  1010.3  2.8  739  287         
06 19.09.17 230 (ЮЗ) 10 км    10/10 240 м 
[St]
+9.3 +8.2 93 +9  1012.4  2.1  740  287  +8.2       
15 19.09.17 220 (ЮЗ) 15000 м    8/3 600 м средняя, верхняя 
[Sc|Ac trans|Ci sp]
+13.9 +8.8 71 +14  1015.9  0.6  743  283      0.0     
18 19.09.17 180 (Ю) 15000 м    1/0 средняя 
[Ac trans]
+10.2 +9.2 94 +11  1017.5  1.3  744  287    +14.9  0.0     
21 19.09.17 тихо ()   6000 м  дымка  ясно 
+6.5 +5.8 95 +7  1019.1  1.1  745  292           
00 20.09.17 тихо ()   8000 м  дымка  ясно 
+4.3 +3.6 95 +4  1019.8  0.4  745  295           
03 20.09.17 тихо ()   8000 м  дымка  9/0 средняя 
[Ac As]
+5.5 +4.8 95 +6  1019.7  0.1  745  294           
06 20.09.17 090 (В) 10 км    10/3 600 м средняя 
[Sc|Ac As]
+8.6 +8 96 +10  1019.9  0.5  746  290  +3.6         
18 20.09.17 070 (В) 15000 м  {ливн. осадки}  9/0 средняя 
[Ac As]
+10.4 +8.5 88 +11  1020.1  0.2  746  288    +12.2  0.3     
21 20.09.17 070 (В) 10 км    9/9 720 м 
[Sc]
+10.6 +9.7 94 +13  1020.1  746  288           
03 21.09.17 060 (СВ) 10 км    9/9 800 м 
[Sc]
+10.8 +9.8 94 +11  1019  -0.4  745  287      0.0     
06 21.09.17 070 (В) 10 км    9/9 1200 м 
[Sc]
+10.6 +9.7 94 +11  1018.1  -0.9  744  287  +9.7    0.0     
18 21.09.17 080 (В) 10 км  {гроза}  9/9 720 м 
[Sc]
+12 +11.2 95 +15  1015.3  0.7  743  284    +12.3     
21 21.09.17 060 (СВ) 10 км    ясно 
+11.3 +10.2 93 +14  1016  0.7  743  286           
Время (UTC), дата Ветер
(°,м/с) 
Видим.   Явления Облачность Т
(°С)
Тd
(°С)
f(%) Тe
(°С)
Pmin
(гПа)
dP
(гПа)
Po
(мм)
O2
(г/м3)
Тmin Tmax R s Состояние
почвы

Для получения пояснительной информации подведите курсор к названию столбца.

ПОГОДА Лынтупы - архив

Всё, что Вы хотите узнать о погоде Лынтупы - удобно и подробно!

Выберите нужную дату (начиная с 1 января 2015* года) и нажмите кнопку "Найти".
Будут отображены архивные сводки погоды по пункту Лынтупы, начиная с указанной даты.


Отображать данные в формате CSV (для использования в таблицах Excel)


Внимание! Наш архив погоды предназначен исключительно для личного некоммерческого использования в познавательных целях. Если Вам необходимы официальные справки о состоянии погоды (для производственных, юридических, коммерческих и т.п. целей), обращайтесь в органы Росгидромета.

*Примечание: данная дата относится к архиву по метеостанциям СССР (Россия, СНГ, Балтия).
Архив по метеостанциям Зарубежной Европы и Азии (кроме Китая) хранится 10 дней, по другим регионам земного шара (Китай, Африка, Америка, Австралия, Океания) - 1 день.

Лынтупы - район местоположения метеостанции


Название, широта, долгота, высота метеостанции:
Лынтупы 55.1°ш. 26.3°д. 212 м над ур. моря [Беларусь]

Дополнительная информация

В oтличие oт бoльшинства пoгoдных сайтoв мы публикуем пoдрoбную метеoинфoрмацию в детальнoм прoфессиoнальнoм фoрмате.

Характеристики температуры и влажнoсти вoздуха измеряются на высoте 2 м в тени вдали oт зданий и деревьев.
Скoрoсть ветра измеряется на высoте 10 м (на урoвне рoста челoвека скoрoсть ветра ниже в 1.5-2 раза). Если метеoстанция нахoдится в гoрoде или в лесу, тo скoрoсть ветра занижена на 2-4 м/с пo сравнению с oткрытым местoм. Скoрoсть ветра над акватoриями крупных рек и oзёр, а также на вершинах хoлмoв на 2-5 м/с выше, чем в oбычных услoвиях.
Атмoсфернoе давление в разных тoчках местнoсти мoжет значительнo oтличаться oт давления на метеoстанции, в зависимoсти oт услoвий рельефа (при пoдъёме на 10 м давление пoнижается примернo на 1 мм рт.ст.).